Location: Chatou
(48.8898°N, 2.1586°E)
Time: 00:54:47
(UTC+00:00)

STRAND 1 - Pass Details

Date: 07 December 2023
Orbit: 766 x 778 km, 98.4° (Epoch: 03 March)

Event Time Altitude Azimuth Distance (km) Brightness Sun altitude
Rises 06:21:34 0° 194° (SSW) 3,232 ? -10.8°
Reaches altitude 10° 06:24:09 10° 206° (SSW) 2,308 ? -10.4°
Maximum altitude 06:28:33 29° 266° (W) 1,381 ? -9.7°
Drops below altitude 10° 06:32:59 10° 326° (NW) 2,318 ? -9.0°
Enters shadow 06:34:47 - 335° (NNW) 2,952 ? -8.8°
